IRIDIUM 169 (43926 NORAD) Tracking and Keplerian Element Data

This shows tracking and keplerian element data for the satellite.

Feedback or suggestion? Click here.




ElementValue
Catalog43926
NameIRIDIUM 169
Epoch Orbit36448
Epoch Day354.14613878
Epoch Year2025
RAAN100.0657
Inclination86.4225
Eccentricity0.0002422
Argument of Perigee123.69
Mean Anonmoly236.4529
Mean Motion14.38610355
Decay Rate2.95E-06
L11 43926U 19002E 25354.14613878 .00000295 00000+0 89802-4 0 9999
L22 43926 86.4225 100.0657 0002422 123.6900 236.4529 14.38610355364485



Live tracking and technical data element details for IRIDIUM 169 (NORAD 43926). IRIDIUM 169 can be tracked NOW for your location showing map with azimuth and elevation plus other details from your city location.







IsCatalogInMostPopularTable: catalog: 43926, numindb: 566
Update: records affected: 1



GetName: 43926 IRIDIUM 169

Hit Count: updated at: Thu, 21 May 2026 11:02:18 GMT